Location: Caltech
(34.1382°N, 118.1253°W)
Time: 23:35:00
(UTC-07:00)

Cosmos 1697 Rocket - Visible Passes

Search period start: 30 June 2015 00:00
Search period end: 10 July 2015 00:00
Orbit: 834 x 842 km, 71.0° (Epoch: 30 June)

Date Brightness Start Highest point End Pass type
(mag) Time Alt. Az. Time Alt. Az. Time Alt. Az.
30 Jun 5.0 00:07:47 10° WNW 00:09:52 13° W 00:09:52 13° W visible
30 Jun 2.8 22:05:10 10° NNW 22:10:44 62° ENE 22:12:32 42° SE visible
30 Jun 4.9 23:51:17 10° WNW 23:54:14 14° W 23:54:17 14° W visible
01 Jul 2.9 21:49:06 10° NNW 21:54:38 57° ENE 21:56:59 33° SE visible
01 Jul 4.8 23:34:53 10° WNW 23:38:10 15° W 23:38:45 15° WSW visible
02 Jul 3.0 21:33:02 10° N 21:38:31 53° ENE 21:41:29 26° SE visible
02 Jul 4.7 23:18:30 10° WNW 23:22:06 17° W 23:23:15 16° WSW visible
03 Jul 3.1 21:16:59 10° N 21:22:24 49° ENE 21:26:02 20° SE visible
03 Jul 4.6 23:02:11 10° WNW 23:06:02 18° WSW 23:07:48 16° SW visible
04 Jul 3.2 21:00:56 10° N 21:06:17 45° ENE 21:10:37 15° SE visible
04 Jul 4.6 22:45:53 10° NW 22:49:57 20° WSW 22:52:23 15° SW visible
05 Jul 3.3 20:44:53 10° N 20:50:10 42° ENE 20:55:16 11° SE visible
05 Jul 4.6 22:29:37 10° NW 22:33:53 22° WSW 22:37:02 14° SW visible
06 Jul 3.4 20:28:50 10° N 20:34:03 39° ENE 20:39:17 10° SE visible
06 Jul 4.5 22:13:22 10° NW 22:17:49 24° WSW 22:21:44 11° SSW visible
07 Jul 4.4 21:57:08 10° NW 22:01:44 26° WSW 22:06:12 10° SSW visible
08 Jul 4.4 21:40:55 10° NW 21:45:40 28° WSW 21:50:18 10° SSW visible
09 Jul 4.3 21:24:42 10° NW 21:29:35 30° WSW 21:34:22 10° SSW visible
